Wind_Speed
8 8 8 7 6 5 5 4 3 2 2 1 1 1 2 3 4 6 8 9 11 13 14 16 18 20 23 26 28 30 31 33 35 36 37 38 39 40 40 41 42 43 43 42
6 5 5 5 5 4 4 3 2 2 1 1 2 4 5 6 7 8 10 11 13 15 17 19 21 23 25 28 31 33 35 36 38 39 40 41 41 42 43 44 44 45 45 44
4 4 3 3 3 3 3 2 2 3 3 4 5 6 8 9 10 11 12 14 16 18 20 23 25 27 30 33 35 37 39 40 42 44 45 46 46 46 46 47 47 47 46 47
4 3 2 2 2 2 3 3 4 5 6 7 8 9 10 11 13 14 16 18 20 23 25 27 30 32 34 36 38 40 43 44 46 47 48 49 49 50 50 51 50 50 50 50
3 3 3 2 2 3 4 5 6 7 8 9 10 11 13 15 17 19 21 23 25 27 29 32 34 36 38 40 42 44 46 47 49 50 51 52 52 53 53 53 54 54 53 53
3 3 3 4 4 4 5 6 7 9 10 11 13 15 17 19 21 23 25 27 29 31 34 36 38 40 42 44 46 47 49 50 51 53 53 54 55 56 56 56 56 56 55 55
4 4 5 6 6 7 7 9 10 11 13 15 17 19 21 23 25 27 29 31 34 36 38 40 42 44 46 48 49 51 53 54 55 55 56 57 58 58 58 58 58 57 56 56
5 5 6 7 8 9 10 11 13 14 16 18 20 22 24 26 29 31 33 35 37 40 42 44 46 47 49 51 53 55 56 57 58 58 59 59 59 59 59 59 59 58 57 56
6 6 7 8 9 10 12 14 15 17 19 21 23 25 27 29 32 34 36 38 41 43 45 47 50 52 53 55 56 57 58 59 59 59 59 59 59 59 58 58 57 57 57 56
7 8 9 10 11 13 14 16 18 20 22 24 26 29 31 33 35 37 39 41 43 45 48 50 52 54 55 56 58 59 59 59 60 60 59 59 58 57 56 55 55 54 54 54
9 10 11 12 14 15 17 19 21 23 25 27 29 32 34 35 37 39 41 43 46 48 50 51 53 54 56 58 59 60 60 60 60 60 59 58 57 56 55 54 53 52 51 50
11 12 13 15 16 18 20 21 24 26 28 30 32 34 36 38 40 41 44 46 48 50 51 52 54 55 57 58 58 58 58 58 58 58 58 57 56 55 54 53 52 52 50 50
13 14 15 16 18 20 22 24 26 29 31 33 35 37 39 40 42 45 46 48 50 50 51 53 55 56 56 56 56 56 56 55 54 54 53 52 51 51 49 50 50 50 49 49
15 16 17 19 21 23 25 27 29 32 34 36 38 40 41 44 46 47 49 50 51 52 54 55 56 55 56 55 54 54 52 51 50 49 47 46 45 44 44 45 45 46 47 47
18 19 20 22 24 26 28 30 32 34 36 38 40 42 44 46 48 49 51 52 54 55 56 56 56 55 54 53 52 50 48 46 45 44 42 41 41 41 41 40 40 41 43 45
20 21 22 24 26 27 30 32 34 36 38 41 43 45 47 49 50 52 53 55 56 57 57 56 54 53 51 50 48 46 44 43 42 40 38 37 37 37 38 37 37 37 39 41
22 23 25 26 28 30 32 34 36 38 41 43 45 47 49 51 53 54 56 57 58 58 56 54 52 50 48 46 45 43 41 40 40 38 36 35 34 34 34 34 34 35 36 38
24 25 27 28 30 32 34 36 38 41 43 45 48 50 52 53 54 56 57 58 58 56 54 52 49 47 45 43 42 40 39 38 37 35 33 32 31 30 30 30 30 31 32 35
26 27 28 30 31 33 36 38 40 42 45 47 50 52 53 54 56 57 58 58 57 54 51 48 46 44 43 41 39 37 36 34 33 31 29 28 27 26 26 26 27 27 29 31
28 29 30 32 33 35 37 39 41 44 47 49 51 53 54 55 56 57 58 57 55 51 48 44 43 42 40 38 36 35 33 31 29 27 26 25 24 24 24 24 25 26 27 28
30 30 32 33 35 36 38 40 42 45 48 50 52 53 54 55 56 56 56 54 52 48 45 43 41 40 38 36 34 32 30 28 26 24 23 22 22 22 22 22 23 23 25 26
31 32 33 34 36 37 39 41 44 46 49 51 52 53 54 55 55 55 55 53 50 46 42 41 40 38 36 34 32 30 28 25 23 22 21 20 19 20 20 19 20 20 21 23
32 33 34 35 36 38 40 42 45 47 50 51 52 53 54 54 55 55 53 51 47 43 41 40 39 37 35 33 31 29 26 24 22 20 18 17 16 16 16 16 17 17 18 19
32 34 34 35 37 39 41 43 46 48 50 50 51 52 53 54 54 53 52 49 45 42 40 39 38 36 34 32 30 27 25 22 20 17 15 14 13 12 12 12 13 15 16 18
33 34 35 36 37 39 41 44 46 48 49 50 51 52 52 52 52 51 49 46 43 41 40 39 37 34 32 30 28 25 23 20 17 15 14 13 11 10 10 10 11 12 14 15
33 34 35 36 38 40 42 45 47 48 49 50 51 52 51 51 50 49 47 45 43 41 39 37 34 32 30 28 26 23 20 18 16 14 12 11 10 9 9 9 10 11 12 13
33 34 35 37 38 40 43 45 47 48 49 49 50 50 50 49 48 47 45 44 42 40 37 35 32 30 28 26 23 21 18 16 14 12 11 9 8 8 8 8 9 10 10 12
Wind_Direction
99 103 101 96 93 101 103 100 96 86 85 96 49 315 305 301 287 276 273 273 272 273 273 272 272 270 270 270 269 267 266 265 263 263 262 262 263 263 262 261 260 259 259 259
103 107 98 88 85 86 79 78 69 36 11 327 295 292 290 298 298 292 285 283 280 280 279 276 274 273 272 273 273 272 271 269 266 265 265 265 265 264 263 263 262 261 261 261
108 109 99 88 74 65 48 38 19 2 343 320 307 302 299 294 294 294 289 286 283 281 281 280 280 279 276 275 274 273 273 271 269 268 267 267 266 266 265 264 263 263 262 261
92 89 87 73 49 22 4 350 341 335 330 323 312 307 305 300 295 292 291 290 289 287 285 284 283 281 279 277 276 275 274 272 271 270 270 269 268 267 266 265 264 263 262 261
72 69 66 40 9 344 338 334 330 328 327 323 318 313 310 305 301 298 296 294 293 292 290 288 286 284 282 280 278 276 275 273 272 272 271 270 268 267 266 265 265 264 262 261
50 45 39 27 17 2 351 338 333 330 327 324 322 317 313 309 306 303 300 297 295 294 292 291 288 286 284 283 281 279 278 276 275 273 272 272 271 270 268 267 266 265 263 262
34 30 27 13 6 357 351 345 339 334 330 327 324 321 317 313 310 306 304 301 299 298 296 294 292 289 286 285 284 282 280 279 277 276 274 273 273 272 270 269 267 265 263 261
15 8 359 351 346 342 337 333 331 327 325 324 322 320 318 315 311 308 306 304 302 301 299 297 295 292 289 287 286 284 282 280 279 277 276 275 273 271 270 269 266 264 262 261
2 356 346 339 335 331 328 327 325 323 322 320 319 318 316 314 312 309 307 304 303 301 299 297 294 292 291 289 287 286 285 283 281 279 277 276 274 273 271 269 266 264 262 260
342 338 334 330 328 326 325 323 322 321 320 319 318 317 315 313 311 309 307 305 304 302 300 298 296 293 291 290 288 287 285 284 282 281 279 278 276 273 271 268 266 264 262 259
330 329 327 326 325 324 324 323 322 321 320 320 319 317 316 314 312 310 309 307 305 303 302 299 297 296 294 292 290 288 287 285 283 281 280 278 276 273 270 268 265 263 260 257
321 323 323 323 323 323 323 323 323 322 322 321 321 320 318 316 314 313 311 309 308 306 304 302 300 298 296 294 293 291 289 287 285 283 281 279 276 272 270 266 263 261 258 255
315 318 319 320 320 321 321 322 322 322 322 321 321 320 319 318 316 315 313 312 311 309 306 304 303 301 299 297 295 294 292 290 288 286 284 280 276 273 268 264 262 258 255 253
308 312 314 316 316 317 318 319 320 321 322 321 321 321 320 319 318 316 315 314 313 311 308 306 305 303 301 299 298 297 295 293 291 288 286 282 277 273 268 264 260 256 253 251
305 307 310 312 314 316 317 318 319 321 322 322 322 321 321 320 319 318 317 316 315 313 311 309 307 305 303 302 301 300 298 295 293 290 287 283 279 274 269 265 260 254 251 248
302 305 308 311 313 316 317 319 320 322 323 323 323 322 322 322 321 320 319 318 316 315 313 311 309 308 307 305 303 301 299 297 295 292 287 283 280 275 269 264 259 254 250 246
299 303 307 310 313 315 317 319 320 322 323 323 323 323 323 323 322 321 320 319 318 317 316 314 312 311 309 307 304 301 299 297 296 293 287 283 281 276 269 263 258 254 250 245
298 302 305 308 311 315 317 319 320 322 324 324 324 324 324 324 324 323 322 321 320 319 318 316 315 314 312 310 307 304 301 298 296 292 287 284 281 275 269 263 257 253 249 245
298 300 304 307 310 313 316 319 321 323 324 325 325 325 326 326 325 325 324 323 323 322 320 319 318 317 316 313 311 308 306 302 298 293 288 283 280 277 269 262 257 251 248 245
296 299 303 306 309 313 316 319 321 323 324 326 326 327 327 327 327 327 326 326 325 325 323 322 321 321 319 317 315 312 309 305 301 296 289 283 279 275 269 263 258 253 249 246
296 299 302 306 309 312 316 319 321 323 325 326 327 328 329 329 329 329 329 329 328 327 326 325 325 323 322 320 319 316 314 309 304 299 293 285 279 273 268 264 259 254 249 245
297 300 303 306 309 312 316 319 321 323 325 327 328 329 330 330 330 330 331 331 330 329 328 327 327 326 325 324 322 320 317 314 309 303 296 289 281 274 267 262 258 253 247 242
297 300 303 307 310 313 316 319 322 324 326 327 328 330 331 331 331 331 332 332 331 330 330 329 329 329 328 326 324 322 319 316 312 306 300 293 284 275 267 260 254 249 242 237
297 300 304 307 311 314 317 320 322 325 326 328 329 330 331 332 332 332 333 333 332 331 330 330 330 329 328 327 326 324 322 318 315 310 304 297 287 277 267 258 250 245 240 236
297 301 304 307 311 315 318 320 323 325 327 328 330 331 332 332 332 333 334 334 333 332 331 331 331 330 330 329 328 327 324 321 317 311 305 298 289 277 266 257 249 243 236 230
296 301 304 307 311 315 318 321 323 325 327 329 330 331 332 332 333 334 334 334 334 333 332 332 332 332 331 331 330 328 326 323 317 313 306 295 284 274 262 254 248 238 226 219
296 301 304 308 311 315 319 321 324 325 327 329 330 331 332 333 333 334 335 335 335 334 334 333 333 333 333 333 332 331 329 326 321 315 309 299 285 273 258 245 233 224 218 215
Height
5624 5624 5625 5625 5625 5626 5626 5626 5627 5627 5627 5627 5627 5628 5628 5628 5629 5629 5629 5630 5631 5631 5632 5633 5634 5634 5635 5635 5635 5636 5637 5637 5638 5639 5640 5640 5641 5642 5644 5645 5646 5648 5649 5651
5626 5626 5627 5627 5627 5628 5628 5628 5628 5628 5629 5628 5628 5628 5628 5628 5628 5627 5627 5627 5627 5627 5627 5628 5628 5627 5627 5627 5626 5626 5626 5627 5627 5627 5628 5628 5629 5630 5630 5632 5633 5634 5636 5638
5628 5628 5628 5629 5629 5629 5629 5629 5629 5629 5630 5628 5628 5628 5627 5627 5626 5626 5625 5625 5624 5623 5623 5622 5621 5620 5619 5618 5617 5616 5615 5615 5615 5615 5615 5615 5615 5616 5616 5617 5618 5620 5621 5623
5629 5630 5629 5632 5629 5629 5629 5629 5629 5628 5628 5628 5627 5627 5626 5625 5624 5623 5622 5621 5619 5618 5616 5615 5613 5611 5609 5608 5606 5604 5603 5602 5601 5601 5601 5600 5600 5600 5601 5601 5603 5604 5605 5607
5629 5629 5630 5630 5629 5629 5629 5629 5628 5627 5627 5626 5625 5624 5623 5622 5620 5619 5617 5615 5613 5611 5608 5606 5603 5601 5598 5596 5593 5591 5589 5588 5586 5585 5584 5584 5584 5583 5584 5584 5585 5587 5588 5590
5630 5630 5630 5631 5629 5628 5630 5628 5627 5626 5625 5624 5623 5622 5621 5618 5616 5613 5611 5608 5606 5603 5599 5596 5593 5589 5586 5583 5580 5577 5574 5572 5570 5568 5567 5566 5566 5565 5565 5566 5567 5568 5570 5572
5630 5630 5630 5630 5629 5629 5629 5629 5626 5624 5623 5621 5620 5618 5616 5613 5610 5607 5604 5601 5597 5593 5589 5585 5581 5576 5573 5569 5565 5561 5558 5555 5552 5550 5548 5547 5546 5546 5546 5546 5547 5549 5551 5553
5630 5630 5632 5629 5628 5628 5628 5625 5624 5622 5620 5618 5616 5613 5610 5607 5603 5600 5596 5592 5587 5583 5578 5573 5568 5563 5558 5553 5549 5545 5541 5537 5534 5531 5529 5527 5526 5526 5525 5526 5527 5529 5531 5534
5631 5632 5630 5628 5627 5626 5624 5623 5621 5619 5617 5614 5611 5608 5605 5601 5596 5592 5587 5582 5577 5571 5566 5560 5554 5548 5542 5537 5531 5526 5522 5518 5514 5511 5509 5507 5505 5505 5505 5505 5506 5508 5511 5514
5630 5629 5628 5626 5625 5624 5622 5620 5618 5615 5612 5609 5606 5602 5597 5593 5588 5582 5577 5571 5565 5559 5552 5546 5538 5531 5525 5519 5513 5507 5502 5498 5494 5491 5488 5486 5484 5484 5484 5484 5485 5487 5490 5493
5629 5628 5626 5624 5623 5621 5618 5616 5613 5610 5607 5603 5599 5594 5589 5584 5578 5572 5566 5559 5552 5545 5538 5530 5522 5515 5507 5500 5493 5488 5482 5477 5473 5470 5467 5465 5464 5463 5463 5464 5465 5467 5470 5473
5627 5625 5624 5622 5619 5617 5614 5611 5608 5604 5600 5596 5591 5586 5580 5574 5568 5561 5554 5546 5539 5530 5522 5514 5506 5498 5489 5481 5474 5468 5462 5457 5453 5449 5446 5444 5443 5443 5442 5444 5445 5447 5450 5454
5623 5622 5620 5618 5615 5612 5609 5606 5602 5598 5593 5588 5582 5576 5570 5563 5556 5549 5541 5532 5524 5515 5507 5498 5489 5480 5471 5463 5456 5449 5443 5438 5433 5429 5426 5424 5422 5422 5423 5425 5425 5427 5431 5435
5619 5617 5615 5613 5610 5607 5604 5600 5595 5591 5585 5580 5573 5567 5560 5552 5544 5536 5527 5518 5509 5500 5491 5481 5472 5463 5453 5445 5438 5431 5425 5419 5414 5411 5407 5405 5404 5404 5404 5406 5408 5410 5413 5418
5615 5613 5610 5607 5604 5601 5597 5593 5588 5583 5577 5571 5564 5556 5549 5541 5532 5523 5514 5504 5494 5484 5474 5464 5454 5445 5436 5428 5421 5415 5409 5403 5398 5394 5391 5389 5388 5388 5388 5389 5391 5394 5397 5401
5610 5607 5604 5601 5598 5594 5590 5585 5580 5574 5568 5561 5553 5545 5537 5529 5519 5510 5500 5489 5479 5469 5458 5447 5438 5429 5420 5412 5405 5399 5394 5388 5384 5380 5377 5375 5374 5373 5373 5375 5376 5379 5383 5386
5604 5601 5598 5595 5591 5587 5582 5577 5571 5565 5558 5551 5543 5534 5526 5516 5507 5496 5486 5474 5463 5452 5441 5431 5422 5413 5405 5397 5390 5385 5380 5375 5370 5367 5364 5362 5361 5360 5360 5361 5363 5366 5369 5373
5597 5594 5591 5588 5583 5579 5574 5568 5562 5555 5548 5540 5532 5523 5514 5504 5494 5483 5472 5460 5449 5437 5426 5416 5407 5399 5391 5384 5377 5371 5366 5362 5358 5354 5352 5350 5349 5348 5348 5349 5351 5354 5357 5360
5589 5587 5583 5579 5575 5570 5565 5559 5553 5546 5538 5530 5521 5512 5502 5491 5481 5469 5458 5446 5435 5424 5414 5404 5395 5387 5379 5372 5365 5360 5354 5350 5346 5343 5341 5339 5339 5338 5338 5339 5341 5343 5347 5350
5581 5578 5575 5571 5567 5562 5556 5550 5543 5536 5528 5519 5510 5500 5490 5479 5468 5457 5445 5433 5422 5412 5402 5393 5385 5377 5369 5362 5356 5350 5345 5340 5336 5333 5332 5331 5330 5330 5330 5331 5333 5335 5338 5341
5573 5570 5566 5562 5558 5553 5547 5540 5534 5526 5518 5509 5499 5490 5479 5468 5457 5445 5434 5423 5412 5401 5392 5384 5376 5368 5361 5354 5348 5342 5337 5332 5329 5326 5324 5323 5322 5322 5323 5323 5325 5327 5329 5333
5565 5561 5558 5553 5549 5543 5537 5531 5524 5516 5507 5498 5489 5479 5469 5458 5447 5435 5424 5413 5403 5393 5385 5376 5368 5361 5354 5347 5341 5335 5330 5326 5323 5320 5318 5317 5316 5316 5316 5317 5318 5320 5322 5325
5556 5552 5549 5544 5540 5534 5528 5521 5514 5506 5497 5488 5478 5469 5458 5448 5437 5427 5416 5405 5395 5386 5378 5370 5362 5354 5348 5341 5335 5330 5325 5321 5318 5315 5313 5312 5311 5310 5311 5312 5313 5315 5317 5320
5546 5543 5539 5535 5530 5525 5519 5512 5504 5496 5487 5478 5468 5459 5449 5439 5428 5417 5407 5397 5387 5379 5371 5364 5356 5349 5342 5336 5330 5325 5321 5317 5314 5311 5309 5308 5307 5307 5307 5308 5309 5311 5313 5316
5537 5534 5530 5526 5521 5516 5509 5502 5495 5487 5478 5468 5459 5450 5440 5430 5420 5410 5399 5390 5381 5373 5365 5358 5350 5343 5337 5331 5326 5321 5317 5314 5311 5308 5307 5305 5304 5304 5304 5305 5306 5308 5310 5312
5528 5525 5521 5517 5512 5506 5500 5493 5485 5477 5468 5459 5450 5441 5431 5421 5412 5402 5393 5384 5375 5367 5359 5352 5345 5339 5333 5327 5322 5318 5314 5311 5308 5306 5304 5303 5302 5302 5302 5303 5304 5305 5307 5310
5519 5516 5512 5508 5503 5497 5491 5484 5476 5468 5459 5451 5442 5433 5423 5414 5405 5395 5387 5378 5369 5361 5354 5347 5341 5335 5329 5324 5320 5316 5312 5309 5306 5304 5302 5301 5300 5300 5301 5301 5302 5304 5306 5308